Location: Bolesławiec
(51.2625°N, 15.5642°E)
Time: 02:47:27
(UTC+01:00)

ISS - Visible Passes

Search period start: 23 January 2019 00:00
Search period end: 02 February 2019 00:00
Orbit: 404 x 411 km, 51.6° (Epoch: 23 January)

Date Brightness Start Highest point End Pass type
(mag) Time Alt. Az. Time Alt. Az. Time Alt. Az.
23 Jan -1.6 18:39:41 10° SSW 18:41:04 17° S 18:41:04 17° S visible
24 Jan -1.6 17:49:25 10° S 17:51:04 13° SE 17:52:03 12° ESE visible
24 Jan -1.2 19:23:50 10° SW 19:24:46 17° SW 19:24:46 17° SW visible
25 Jan -2.9 18:32:43 10° SW 18:35:40 35° SSE 18:35:40 35° SSE visible
26 Jan -2.3 17:41:49 10° SSW 17:44:32 24° SSE 17:46:30 15° E visible
26 Jan -1.9 19:17:28 10° WSW 19:19:13 29° WSW 19:19:13 29° WSW visible
27 Jan -3.6 18:26:09 10° WSW 18:29:24 58° SSE 18:30:00 48° ESE visible
27 Jan -0.2 20:02:37 10° W 20:02:43 11° W 20:02:43 11° W visible
28 Jan -3.0 17:34:57 10° SW 17:38:05 41° SSE 17:40:44 13° E visible
28 Jan -2.5 19:11:12 10° W 19:13:26 40° W 19:13:26 40° W visible
29 Jan -3.9 18:19:46 10° WSW 18:23:05 83° SSE 18:24:08 40° E visible
29 Jan -0.5 19:56:21 10° W 19:56:51 14° W 19:56:51 14° W visible
30 Jan -3.6 17:28:23 10° WSW 17:31:40 67° SSE 17:34:49 11° E visible
30 Jan -3.1 19:04:54 10° W 19:07:31 52° WNW 19:07:31 52° WNW visible
31 Jan -3.9 18:13:26 10° W 18:16:45 83° N 18:18:11 31° E visible
31 Jan -0.8 19:50:01 10° W 19:50:54 17° W 19:50:54 17° W visible
01 Feb -3.8 17:21:59 10° W 17:25:18 89° SE 17:28:36 10° E visible
01 Feb -3.6 18:58:33 10° W 19:01:34 71° W 19:01:34 71° W visible
